Simultaneous Nadir Overpasses (SNOs) Predictions

Prediction of SNOs near US between AQUA and NPP Satellite Orbit:

Table of predicted SNOs near US for the next 10.0 days since TLE Epoch: 10/27/2012
Index Date (AQUA) Time (AQUA) AQUA Lat,Lon Date (NPP) Time (NPP) NPP Lat,Lon Distance(km) Time Diff (sec)
1 10/28/2012 06:31:38 40.62, -67.04 10/28/2012 06:30:00 41.01, -69.12 179.91 98
2 10/28/2012 08:07:55 49.90, -88.37 10/28/2012 08:08:48 50.36, -90.82 182.33 53
3 10/28/2012 09:46:48 49.90,-113.09 10/28/2012 09:50:15 50.53,-116.12 226.85 207
4 10/30/2012 19:05:59 49.96, -92.53 10/30/2012 18:59:05 49.61, -94.35 136.76 414
5 10/30/2012 20:44:52 49.97,-117.25 10/30/2012 20:40:34 49.56,-119.71 182.08 258
6 11/05/2012 07:18:04 49.90, -75.91 11/05/2012 07:18:07 50.35, -78.16 168.15 3
7 11/05/2012 08:56:57 49.89,-100.63 11/05/2012 08:59:35 50.46,-103.49 212.81 158




NCC Satellite Simultaneous Nadir Overpasses (SNOs) Prediction Service
